Location: Moscow
(55.7500°N, 37.5830°E)
Time: 20:51:00
(UTC+03:00)

Altair - Visible Passes

Search period start: 06 December 2021 00:00
Search period end: 16 December 2021 00:00
Orbit: 1502 x 1682 km, 47.2° (Epoch: 05 December)

Date Brightness Start Highest point End Pass type
(mag) Time Alt. Az. Time Alt. Az. Time Alt. Az.
06 Dec 8.0 17:38:11 10° WSW 17:47:08 50° S 17:55:12 13° ESE visible
06 Dec 8.0 19:42:02 10° W 19:50:41 45° SSW 19:53:14 37° SSE visible
06 Dec 9.0 21:46:42 10° W 21:51:15 22° WSW 21:51:15 22° WSW visible
07 Dec 8.1 17:13:04 10° WSW 17:22:02 50° S 17:30:46 10° E visible
07 Dec 8.0 19:16:53 10° W 19:25:37 46° SSW 19:29:33 31° SE visible
07 Dec 8.8 21:21:28 10° W 21:27:35 25° SW 21:27:35 25° SW visible
08 Dec 8.2 16:47:58 10° WSW 16:56:56 49° S 17:05:40 10° E visible
08 Dec 8.1 18:51:44 10° W 19:00:32 47° SSW 19:05:56 24° SE visible
08 Dec 8.6 20:56:14 10° W 21:03:34 28° SW 21:03:58 27° SSW visible
09 Dec 8.1 18:26:36 10° W 18:35:27 48° SSW 18:42:22 17° SE visible
09 Dec 8.6 20:31:01 10° W 20:38:33 29° SW 20:40:25 27° SSW visible
10 Dec 8.1 18:01:27 10° W 18:10:21 49° S 18:18:54 11° ESE visible
10 Dec 8.6 20:05:48 10° W 20:13:32 31° SW 20:16:57 24° S visible
10 Dec 9.6 22:14:29 10° WSW 22:15:00 10° WSW 22:15:00 10° WSW visible
11 Dec 8.2 17:36:18 10° W 17:45:15 50° S 17:53:59 10° ESE visible
11 Dec 8.6 19:40:36 10° W 19:48:30 32° SSW 19:53:34 19° SSE visible
11 Dec 9.5 21:47:54 10° WSW 21:50:39 12° SW 21:51:37 11° SW visible
12 Dec 8.2 17:11:09 10° WSW 17:20:10 51° S 17:28:55 10° ESE visible
12 Dec 8.6 19:15:24 10° W 19:23:27 34° SSW 19:30:19 14° SSE visible
12 Dec 9.4 21:22:02 10° WSW 21:25:43 13° SW 21:28:23 11° SW visible
13 Dec 8.3 16:46:00 10° WSW 16:55:04 51° S 17:03:51 10° ESE visible
13 Dec 8.6 18:50:13 10° W 18:58:25 36° SSW 19:06:26 10° SSE visible
13 Dec 9.4 20:56:22 10° W 21:00:45 14° SW 21:05:07 10° SSW visible
14 Dec 8.6 18:25:01 10° W 18:33:21 37° SSW 18:41:30 10° SE visible
14 Dec 9.5 20:30:50 10° W 20:35:47 16° SW 20:40:42 10° SSW visible
15 Dec 8.6 17:59:50 10° W 18:08:18 39° SSW 18:16:33 10° SE visible
15 Dec 9.5 20:05:23 10° W 20:10:49 17° SW 20:16:13 10° SSW visible
